MST,Max TemperatureF,Mean TemperatureF,Min TemperatureF,Max Dew PointF,MeanDew PointF,Min DewpointF,Max Humidity, Mean Humidity, Min Humidity, Max Sea Level PressureIn, Mean Sea Level PressureIn, Min Sea Level PressureIn, Max VisibilityMiles, Mean VisibilityMiles, Min VisibilityMiles, Max Wind SpeedMPH, Mean Wind SpeedMPH, Max Gust SpeedMPH,PrecipitationIn, CloudCover, Events, WindDirDegrees
2013-3-1,82,65,47,34,21,14,37,23,8,30.33,30.25,30.18,10,10,10,14,4,18,0.00,0,,20
2013-3-2,87,69,51,37,29,22,43,26,9,30.24,30.14,30.04,10,10,10,13,4,15,0.00,1,,15
2013-3-3,79,66,52,36,32,25,50,33,15,30.03,29.95,29.87,10,10,10,9,2,12,0.00,4,,198
2013-3-4,80,68,56,43,37,31,47,35,22,30.02,29.94,29.88,10,10,10,22,8,32,0.00,2,,278
2013-3-5,80,68,55,41,38,33,59,39,19,30.06,29.98,29.92,10,10,6,9,4,12,0.00,3,Fog,103
2013-3-6,78,67,56,43,35,27,57,36,15,30.01,29.93,29.86,10,10,10,14,6,20,0.00,2,,285
2013-3-7,75,63,51,39,36,33,59,41,23,29.94,29.89,29.83,10,10,10,17,6,24,0.00,3,,316
2013-3-8,67,59,51,47,38,30,77,52,26,29.99,29.85,29.79,10,10,6,23,7,28,0.08,5,Rain,290
2013-3-9,70,59,47,37,35,31,65,45,24,30.09,30.03,29.98,10,10,10,18,7,23,0.00,4,,258
2013-3-10,77,63,49,38,29,21,61,38,14,30.20,30.14,30.09,10,10,10,18,6,26,0.00,0,,351
2013-3-11,82,66,50,36,27,19,44,27,10,30.16,30.08,29.98,10,10,10,12,5,16,0.00,0,,355
2013-3-12,87,71,54,36,29,21,43,26,9,30.07,30.01,29.96,10,10,10,9,4,16,0.00,0,,358
2013-3-13,93,75,56,39,32,25,43,26,9,30.10,30.03,29.97,10,10,10,12,4,18,0.00,0,,358
2013-3-14,96,79,62,44,34,25,34,21,8,30.05,29.98,29.92,10,10,7,12,4,17,0.00,1,,8
2013-3-15,94,77,60,44,38,30,55,33,11,29.95,29.88,29.80,10,10,10,12,3,16,0.00,3,,263
2013-3-16,90,75,60,41,34,26,42,27,11,29.83,29.77,29.70,10,10,10,13,5,15,0.00,2,,207
2013-3-17,90,74,58,49,39,31,57,35,12,29.87,29.80,29.75,10,10,10,14,6,18,0.00,2,,213
2013-3-18,85,73,60,45,39,34,49,34,18,29.95,29.89,29.84,10,10,10,13,6,15,0.00,4,,201
2013-3-19,87,73,58,47,41,36,52,35,17,29.98,29.93,29.88,10,10,10,13,5,16,0.00,6,,202
2013-3-20,89,76,62,46,39,28,48,32,15,29.99,29.90,29.81,10,10,10,17,5,22,0.00,6,,233
2013-3-21,85,75,65,43,38,30,42,31,20,29.80,29.73,29.66,10,10,10,13,5,16,0.00,5,,259
2013-3-22,88,73,57,44,33,18,52,30,7,29.78,29.71,29.65,10,10,10,16,5,21,0.00,0,,284
2013-3-23,82,69,55,47,18,2,72,39,5,29.99,29.90,29.79,10,10,10,23,9,29,0.00,1,,14
2013-3-24,84,71,57,24,10,4,22,14,5,29.99,29.93,29.85,10,10,10,15,7,18,0.00,0,,15
2013-3-25,88,71,54,34,19,10,30,18,5,29.95,29.89,29.83,10,10,10,13,4,15,0.00,2,,68
2013-3-26,90,76,62,40,25,14,27,17,6,29.88,29.82,29.75,10,10,10,15,5,31,0.00,6,,185
2013-3-27,87,74,60,33,28,22,32,22,11,29.92,29.86,29.80,10,10,10,12,5,16,0.00,6,,252
2013-3-28,87,74,60,41,36,30,39,27,14,30.01,29.94,29.90,10,10,10,9,2,0,0.00,6,,239
2013-3-29,88,74,59,45,37,26,48,30,12,30.06,29.99,29.94,10,10,10,10,4,13,0.00,4,,209
2013-3-30,90,79,67,44,32,16,39,23,7,30.01,29.95,29.89,10,8,7,14,4,17,0.00,4,,221
2013-3-31,87,75,63,41,38,34,40,29,17,29.99,29.93,29.88,10,9,7,17,9,25,0.00,2,,286